Hourly Weather Lukow

Today, 17 May, Monday

Time Temperature Precipitation Wind Pressure Humidity
00:00 +8°C° 0 mm 2 mps 740 mmHg 92%
01:00 +8°C° 0 mm 2 mps 739 mmHg 92%
02:00 +7°C° 0 mm 2 mps 739 mmHg 93%
03:00 +7°C° 0 mm 2 mps 739 mmHg 93%
04:00 +7°C° 0 mm 2 mps 739 mmHg 94%
05:00 +8°C° 0 mm 2 mps 740 mmHg 90%
06:00 +10°C° 0 mm 3 mps 740 mmHg 87%
07:00 +11°C° 0 mm 3 mps 740 mmHg 83%
08:00 +12°C° 0.1 mm 3 mps 740 mmHg 77%
09:00 +14°C° 0.1 mm 3 mps 741 mmHg 71%
10:00 +16°C° 0.1 mm 3 mps 741 mmHg 65%
11:00 +15°C° 0.2 mm 4 mps 741 mmHg 65%
12:00 +15°C° 0.2 mm 4 mps 741 mmHg 64%
13:00 +15°C° 0.2 mm 5 mps 741 mmHg 64%
14:00 +15°C° 0.1 mm 4 mps 741 mmHg 64%
15:00 +15°C° 0.1 mm 4 mps 741 mmHg 65%
16:00 +15°C° 0.1 mm 4 mps 741 mmHg 65%
17:00 +14°C° 0.2 mm 4 mps 741 mmHg 71%
18:00 +13°C° 0.2 mm 4 mps 742 mmHg 78%
19:00 +12°C° 0.2 mm 4 mps 742 mmHg 84%
20:00 +11°C° 0 mm 4 mps 742 mmHg 87%
21:00 +10°C° 0 mm 4 mps 743 mmHg 89%
22:00 +10°C° 0 mm 4 mps 743 mmHg 91%
23:00 +8°C° 0 mm 4 mps 743 mmHg 92%

Tomorrow, 18 May, Tuesday

Time Temperature Precipitation Wind Pressure Humidity
00:00 +8°C° 0 mm 4 mps 743 mmHg 92%
01:00 +7°C° 0 mm 4 mps 744 mmHg 93%
02:00 +7°C° 0 mm 4 mps 744 mmHg 94%
03:00 +8°C° 0 mm 3 mps 744 mmHg 95%
04:00 +7°C° 0 mm 3 mps 744 mmHg 96%
05:00 +7°C° 0 mm 4 mps 744 mmHg 93%
06:00 +8°C° 0 mm 4 mps 744 mmHg 91%
07:00 +10°C° 0 mm 4 mps 745 mmHg 88%
08:00 +10°C° 0.2 mm 5 mps 745 mmHg 86%
09:00 +10°C° 0.2 mm 5 mps 745 mmHg 84%
10:00 +12°C° 0.2 mm 5 mps 745 mmHg 82%
11:00 +13°C° 0.2 mm 5 mps 745 mmHg 73%
12:00 +14°C° 0.2 mm 5 mps 745 mmHg 64%
13:00 +16°C° 0.2 mm 5 mps 745 mmHg 56%
14:00 +15°C° 0.1 mm 5 mps 745 mmHg 58%
15:00 +15°C° 0.1 mm 5 mps 745 mmHg 60%
16:00 +15°C° 0.1 mm 5 mps 745 mmHg 63%
17:00 +14°C° 0.3 mm 4 mps 746 mmHg 70%
18:00 +13°C° 0.3 mm 4 mps 746 mmHg 78%
19:00 +11°C° 0.3 mm 3 mps 746 mmHg 85%
20:00 +10°C° 0 mm 3 mps 746 mmHg 88%
21:00 +9°C° 0 mm 3 mps 747 mmHg 92%
22:00 +8°C° 0 mm 3 mps 747 mmHg 95%
23:00 +8°C° 0 mm 3 mps 747 mmHg 95%

Day after tomorrow, 19 May, Wednesday

Time Temperature Precipitation Wind Pressure Humidity
00:00 +7°C° 0 mm 3 mps 747 mmHg 95%
01:00 +6°C° 0 mm 4 mps 748 mmHg 95%
02:00 +7°C° 0 mm 3 mps 748 mmHg 95%
03:00 +5°C° 0 mm 3 mps 748 mmHg 96%
04:00 +5°C° 0 mm 3 mps 747 mmHg 96%
05:00 +7°C° 0.2 mm 3 mps 748 mmHg 96%
06:00 +8°C° 0.2 mm 3 mps 748 mmHg 95%
07:00 +9°C° 0.2 mm 3 mps 748 mmHg 95%
08:00 +8°C° 0.3 mm 4 mps 748 mmHg 95%
09:00 +8°C° 0.3 mm 4 mps 749 mmHg 94%
10:00 +8°C° 0.3 mm 4 mps 749 mmHg 93%
11:00 +8°C° 0.1 mm 4 mps 749 mmHg 88%
12:00 +10°C° 0.1 mm 4 mps 749 mmHg 84%
13:00 +10°C° 0.1 mm 4 mps 749 mmHg 79%
14:00 +11°C° 0 mm 4 mps 750 mmHg 74%
15:00 +12°C° 0 mm 4 mps 750 mmHg 69%
16:00 +12°C° 0 mm 4 mps 750 mmHg 65%
17:00 +11°C° 0.1 mm 3 mps 750 mmHg 69%
18:00 +12°C° 0.1 mm 2 mps 750 mmHg 73%
19:00 +11°C° 0.1 mm 1 mps 750 mmHg 78%
20:00 +10°C° 0 mm 1 mps 750 mmHg 81%
21:00 +9°C° 0 mm 1 mps 750 mmHg 85%
22:00 +8°C° 0 mm 1 mps 750 mmHg 89%
23:00 +7°C° 0 mm 1 mps 750 mmHg 90%

20 May, Thursday

Time Temperature Precipitation Wind Pressure Humidity
00:00 +6°C° 0 mm 2 mps 750 mmHg 92%
01:00 +6°C° 0 mm 2 mps 750 mmHg 94%
02:00 +5°C° 0 mm 2 mps 750 mmHg 94%
03:00 +5°C° 0 mm 2 mps 751 mmHg 95%
04:00 +5°C° 0 mm 2 mps 751 mmHg 96%
05:00 +7°C° 0 mm 3 mps 751 mmHg 92%
06:00 +8°C° 0 mm 3 mps 751 mmHg 87%
07:00 +10°C° 0 mm 3 mps 752 mmHg 83%
08:00 +10°C° 0.2 mm 4 mps 752 mmHg 83%
09:00 +11°C° 0.2 mm 4 mps 752 mmHg 83%
10:00 +11°C° 0.2 mm 4 mps 752 mmHg 82%
11:00 +12°C° 0.3 mm 4 mps 752 mmHg 73%
12:00 +14°C° 0.3 mm 5 mps 752 mmHg 64%
13:00 +15°C° 0.3 mm 5 mps 752 mmHg 55%
14:00 +15°C° 0.1 mm 5 mps 752 mmHg 56%
15:00 +15°C° 0.1 mm 6 mps 752 mmHg 58%
16:00 +14°C° 0.1 mm 6 mps 752 mmHg 59%
17:00 +13°C° 0.1 mm 5 mps 753 mmHg 62%
18:00 +12°C° 0.1 mm 5 mps 753 mmHg 65%
19:00 +11°C° 0.1 mm 4 mps 753 mmHg 68%
20:00 +9°C° 0 mm 3 mps 753 mmHg 74%
21:00 +8°C° 0 mm 3 mps 754 mmHg 80%
22:00 +5°C° 0 mm 3 mps 754 mmHg 86%
23:00 +5°C° 0 mm 3 mps 754 mmHg 89%

21 May, Friday

Time Temperature Precipitation Wind Pressure Humidity
00:00 +4°C° 0 mm 3 mps 754 mmHg 92%
01:00 +4°C° 0 mm 3 mps 754 mmHg 95%
02:00 +5°C° 0 mm 2 mps 753 mmHg 96%
03:00 +5°C° 0 mm 2 mps 753 mmHg 96%
04:00 +4°C° 0 mm 2 mps 753 mmHg 97%
05:00 +5°C° 0 mm 3 mps 753 mmHg 90%
06:00 +8°C° 0 mm 3 mps 753 mmHg 84%
07:00 +9°C° 0 mm 3 mps 753 mmHg 77%
08:00 +11°C° 0 mm 3 mps 753 mmHg 69%
09:00 +13°C° 0 mm 3 mps 752 mmHg 61%
10:00 +15°C° 0 mm 4 mps 752 mmHg 54%
11:00 +17°C° 0 mm 4 mps 751 mmHg 50%
12:00 +18°C° 0 mm 4 mps 751 mmHg 46%
13:00 +18°C° 0 mm 4 mps 750 mmHg 43%
14:00 +18°C° 0.1 mm 3 mps 750 mmHg 49%
15:00 +17°C° 0.1 mm 3 mps 749 mmHg 55%
16:00 +17°C° 0.1 mm 3 mps 749 mmHg 61%
17:00 +15°C° 0.2 mm 2 mps 749 mmHg 68%
18:00 +14°C° 0.2 mm 1 mps 748 mmHg 75%
19:00 +13°C° 0.2 mm 1 mps 748 mmHg 82%
20:00 +12°C° 0 mm 1 mps 748 mmHg 84%
21:00 +12°C° 0 mm 2 mps 747 mmHg 86%
22:00 +10°C° 0 mm 2 mps 747 mmHg 87%
23:00 +10°C° 0 mm 2 mps 746 mmHg 87%

22 May, Saturday

Time Temperature Precipitation Wind Pressure Humidity
00:00 +10°C° 0 mm 3 mps 746 mmHg 87%
01:00 +10°C° 0 mm 3 mps 745 mmHg 87%
02:00 +9°C° 0 mm 3 mps 745 mmHg 87%
03:00 +9°C° 0 mm 3 mps 744 mmHg 87%
04:00 +9°C° 0 mm 3 mps 744 mmHg 87%
05:00 +10°C° 0 mm 4 mps 744 mmHg 83%
06:00 +11°C° 0 mm 4 mps 744 mmHg 79%
07:00 +12°C° 0 mm 5 mps 744 mmHg 76%
08:00 +13°C° 0 mm 5 mps 744 mmHg 72%
09:00 +14°C° 0 mm 6 mps 744 mmHg 69%
10:00 +16°C° 0 mm 6 mps 745 mmHg 66%
11:00 +16°C° 0.2 mm 6 mps 745 mmHg 64%
12:00 +15°C° 0.2 mm 6 mps 745 mmHg 62%
13:00 +15°C° 0.2 mm 6 mps 745 mmHg 61%
14:00 +16°C° 0.1 mm 6 mps 745 mmHg 58%
15:00 +16°C° 0.1 mm 5 mps 745 mmHg 55%
16:00 +16°C° 0.1 mm 5 mps 745 mmHg 53%
17:00 +15°C° 0.1 mm 4 mps 746 mmHg 59%
18:00 +13°C° 0.1 mm 3 mps 746 mmHg 66%
19:00 +13°C° 0.1 mm 2 mps 746 mmHg 73%
20:00 +12°C° 0 mm 2 mps 746 mmHg 76%
21:00 +9°C° 0 mm 2 mps 746 mmHg 80%
22:00 +8°C° 0 mm 2 mps 746 mmHg 83%
23:00 +8°C° 0 mm 2 mps 746 mmHg 84%
Show more

We Need Your Consent

Meteoprog and our Service Providers may store and access personal data such as cookies, device identifiers or other similar technologies on your device and process such data to personalise content and ads, as well as provide social media features and to analyse the traffic.

  • Store and/or access information on your device

    Cookies, device identifiers or other information can be stored or accessed on your device for the purposes indicated above.

  • Personalised ads and content, ad and content measurement, audience insights, and products development

    Ads and content can be personalised based on a profile. More data can be added to better personalise ads and content. Ad and content performance can be measured. Insights about the audience who saw the ads and content can be derived. Such data can be used to develop or improve user’s experience, systems and software.

By clicking ‘I Agree’ you will allow the use of indicated cookies, device identifiers, web beacons or other similar technologies. Your settings can be changed in the browser on your device.

For certain purposes, legitimate interests may be relied on, rather than consent. You can read more about this in our Privacy and Cookie Policy.